Wind_Speed
16 17 15 12 8 3 2 2 3 3 4 6 6 7 6 6 5 5 5 4 3 3 4 4 4 5 5 3 4 4 4 4 4 5 6 5 4 5 5 4 2 0 2
20 17 16 13 9 5 2 2 1 2 2 3 4 4 4 6 6 6 5 5 5 5 4 4 4 4 5 5 5 4 4 3 3 3 3 2 2 3 4 4 3 2 2
21 17 16 14 11 7 4 4 2 1 1 1 2 4 5 7 8 7 7 6 5 4 3 4 5 4 4 4 5 4 3 3 3 3 3 2 2 0 1 2 3 1 1
20 20 17 16 13 9 8 6 5 4 3 2 2 3 4 5 7 8 9 8 7 6 5 3 4 6 5 4 5 6 6 4 3 4 4 4 4 4 4 3 3 3 2
21 20 19 16 14 12 11 9 8 6 5 4 4 4 5 6 7 6 7 8 9 9 7 6 5 4 6 6 6 6 8 8 7 5 5 6 5 6 7 7 6 5 4
17 19 16 18 17 14 12 11 11 9 8 7 7 7 7 8 8 8 8 8 8 9 9 9 9 7 6 7 8 8 8 9 10 9 8 7 7 8 8 10 9 8 8
16 14 17 17 16 16 14 14 14 14 14 13 13 11 11 10 10 10 11 10 10 10 10 10 9 10 10 9 8 9 9 10 11 12 11 10 9 9 9 10 11 11 11
12 12 12 14 14 15 16 15 15 16 16 17 18 17 16 15 15 15 15 15 15 14 13 12 12 12 12 12 11 10 10 11 12 12 13 12 12 11 11 11 12 13 13
12 12 12 12 14 15 16 16 16 17 18 20 21 21 21 20 20 19 19 19 18 19 18 16 14 13 14 16 15 13 13 13 13 14 13 13 14 14 13 13 13 13 15
15 15 15 16 16 17 18 19 20 21 20 21 22 23 24 24 23 24 23 22 21 21 21 20 17 16 15 14 16 17 16 15 15 14 15 14 14 14 15 15 15 14 16
17 18 19 20 21 22 23 24 24 25 26 25 25 26 26 26 27 26 27 26 26 25 25 24 23 21 18 17 16 16 18 18 17 16 16 16 14 16 15 17 17 16 17
21 22 23 24 25 26 27 28 28 29 29 30 30 31 31 31 31 31 31 31 31 31 30 29 28 27 25 22 20 19 19 19 20 20 18 18 17 18 18 18 18 18 18
23 24 24 25 26 27 27 28 29 30 30 31 31 32 33 34 34 35 35 35 36 36 36 36 33 33 31 30 28 25 23 22 23 23 22 20 20 20 21 21 19 19 20
24 25 25 26 26 26 26 26 27 27 27 28 29 30 32 33 35 36 37 38 38 39 39 39 38 37 36 36 35 32 30 27 26 25 24 24 24 23 23 23 23 23 21
25 25 24 23 22 21 20 20 21 21 22 23 24 26 27 29 30 32 34 36 38 40 41 42 42 42 40 39 40 39 37 34 32 29 28 26 27 25 24 26 25 25 25
23 21 20 18 18 18 18 19 19 20 20 20 21 23 25 26 27 29 31 33 35 36 38 40 43 44 45 45 43 43 43 40 39 36 33 31 29 28 27 28 27 28 27
20 19 18 17 18 18 18 19 19 20 20 20 20 20 21 22 24 26 28 30 32 34 37 38 41 43 45 46 48 46 45 45 44 42 39 36 33 31 29 32 31 29 29
20 19 18 17 16 18 19 20 20 21 21 21 20 20 20 20 21 22 23 25 28 30 32 35 37 40 43 45 46 49 50 48 48 47 44 41 39 36 33 32 35 34 33
20 18 17 17 19 20 20 21 21 22 22 21 21 21 21 22 22 23 24 25 26 28 31 33 36 39 40 42 45 47 49 51 51 48 48 45 42 40 38 34 35 36 36
20 19 19 19 19 20 21 22 22 23 23 23 23 23 23 24 25 25 26 27 28 29 30 32 34 38 42 44 46 48 48 48 50 50 50 48 47 45 43 39 36 37 38
23 21 20 19 19 20 21 22 23 24 25 25 25 26 26 26 27 28 29 30 30 31 31 32 33 35 39 44 47 47 48 48 50 50 52 54 49 49 48 46 41 39 39
25 22 20 19 20 20 21 22 23 24 26 27 27 27 28 29 29 30 31 32 32 32 33 34 34 34 37 41 45 49 50 43 48 49 52 53 55 53 53 52 49 43 43
25 22 21 20 21 21 21 22 23 25 26 28 29 30 30 30 30 31 32 32 33 33 34 35 36 37 36 36 42 46 50 53 50 44 49 55 56 56 59 53 52 49 46
26 24 21 21 21 21 22 23 25 25 25 25 26 28 29 29 30 30 31 32 33 34 34 36 37 38 38 37 36 39 45 52 56 59 46 51 56 57 57 56 55 53 50
28 24 21 21 22 22 24 25 26 26 26 27 28 29 30 30 30 31 32 33 34 34 35 36 37 39 40 39 39 39 40 44 49 59 66 51 53 52 57 50 53 54 53
27 22 22 23 23 24 26 27 27 27 27 27 27 28 29 29 29 30 31 32 33 34 35 36 37 38 39 40 41 41 42 43 45 53 58 59 54 55 54 52 64 52 55
Wind_Direction
173 172 170 170 172 143 88 90 75 51 43 31 28 24 22 21 7 360 342 340 333 314 308 306 319 342 347 18 32 30 40 40 54 66 71 84 98 106 99 97 91 45 62
184 180 178 179 178 181 163 154 85 70 42 41 42 31 16 11 14 21 7 354 339 321 305 290 290 300 316 334 347 360 9 16 33 37 48 60 66 75 109 113 107 1 327
190 190 183 187 191 201 204 203 203 211 259 329 13 15 18 9 11 8 14 9 8 357 327 299 294 291 282 297 309 320 338 337 340 348 345 347 329 350 236 153 135 148 295
192 192 189 192 197 206 210 221 225 231 249 278 297 316 335 352 359 6 2 3 360 360 350 330 300 297 290 280 290 295 293 288 293 299 308 312 299 280 268 247 214 186 216
200 197 201 200 206 209 223 220 229 236 253 261 274 291 307 322 330 337 348 354 351 348 346 336 320 288 283 275 269 267 280 287 278 274 284 284 289 287 274 256 244 224 213
205 197 202 207 215 220 234 241 241 243 248 259 270 282 293 300 304 312 319 324 328 334 342 336 325 314 294 281 272 264 262 268 275 273 269 267 283 284 278 270 253 235 227
197 203 201 213 222 227 233 242 245 249 254 260 264 271 278 287 292 300 303 306 309 316 316 319 323 314 304 293 282 276 273 268 265 268 266 263 255 266 269 268 262 253 244
209 215 217 221 228 231 239 247 251 254 257 261 264 268 276 280 284 288 292 295 299 302 305 305 309 313 305 292 283 276 272 271 272 268 267 265 264 258 265 263 263 259 252
219 224 227 235 246 254 258 257 260 262 264 265 266 268 272 276 279 282 286 290 294 296 297 297 297 296 302 304 293 284 278 275 273 275 271 266 261 260 260 264 262 259 256
232 238 243 246 247 251 258 266 270 272 269 267 268 268 268 269 271 276 278 281 283 287 288 289 288 289 291 287 298 294 284 279 275 277 276 271 267 263 258 260 261 261 260
243 248 252 257 261 264 267 268 270 272 274 273 273 272 272 272 272 271 273 275 278 279 282 285 286 285 280 281 278 282 286 281 274 271 272 269 264 262 261 258 260 257 259
253 255 259 262 265 268 270 271 271 271 272 273 273 272 272 272 272 272 271 272 273 275 277 278 282 283 283 278 275 275 277 281 277 272 266 266 257 256 256 257 258 260 260
255 259 262 266 269 271 273 275 276 276 276 275 274 274 274 273 272 271 271 270 271 271 273 275 275 277 277 277 275 275 277 275 276 274 269 265 262 257 254 255 256 258 260
262 266 269 271 272 273 274 274 275 276 277 278 277 276 275 275 274 273 273 272 272 272 272 273 272 270 271 273 272 271 273 274 271 271 270 266 260 260 258 256 255 253 255
262 264 265 266 267 267 268 270 273 274 275 277 278 279 279 279 279 277 275 273 271 270 269 270 271 271 269 266 269 270 268 269 270 266 266 265 263 255 256 254 253 251 253
258 257 258 260 264 269 273 276 277 279 280 281 282 282 283 282 282 281 280 279 278 277 274 272 269 269 269 267 264 264 265 266 266 265 262 263 262 259 251 252 251 253 252
248 249 253 257 261 268 273 276 278 279 279 280 280 280 281 282 283 283 282 281 280 279 278 276 275 273 270 269 269 264 262 263 262 263 261 259 259 256 251 252 250 251 253
242 244 250 259 268 273 275 277 278 278 278 279 281 284 286 286 285 285 284 283 283 283 282 280 278 276 275 272 269 268 268 262 260 259 260 259 256 256 253 249 253 252 251
241 246 252 259 264 268 271 274 276 278 280 282 286 291 296 300 301 300 297 294 291 288 286 285 285 285 281 278 276 272 267 266 265 259 257 255 256 257 256 251 251 254 253
247 251 257 264 271 276 279 282 285 288 289 293 298 302 304 305 305 306 305 303 299 295 290 286 282 281 279 277 277 277 274 270 266 261 257 255 254 252 255 252 251 254 255
245 252 260 268 273 276 281 285 289 295 299 300 302 305 308 310 310 311 309 307 304 300 294 289 284 280 279 278 275 272 274 273 270 266 259 254 259 254 248 248 245 247 251
245 251 259 265 269 274 280 286 291 295 297 300 303 307 310 313 314 314 312 311 309 306 303 299 295 290 286 283 280 277 273 260 266 265 263 258 251 254 255 247 248 245 246
245 249 256 264 271 280 286 289 291 294 298 303 309 313 313 312 313 313 312 311 310 308 307 305 302 299 295 290 287 287 282 276 266 254 256 256 254 252 253 252 247 246 246
242 249 261 270 278 286 290 293 296 299 301 302 302 303 306 308 311 313 315 316 315 314 313 311 309 306 304 300 293 289 289 288 286 273 251 253 251 254 252 248 246 247 245
243 253 265 274 287 294 295 295 295 297 299 302 304 306 308 311 314 317 319 320 320 319 317 315 313 310 308 305 301 295 287 283 286 287 284 253 249 246 251 245 247 247 248
243 256 267 282 296 299 295 293 293 294 297 300 301 304 307 310 313 316 319 321 322 321 319 317 314 311 308 306 302 297 293 288 282 282 282 282 266 239 242 246 248 249 245
Height
3173 3175 3176 3177 3178 3179 3180 3179 3179 3179 3179 3179 3179 3178 3178 3177 3177 3176 3176 3175 3175 3175 3174 3174 3175 3175 3174 3174 3173 3174 3174 3174 3174 3173 3173 3173 3173 3173 3173 3174 3175 3174 3174
3171 3174 3176 3177 3178 3179 3180 3180 3180 3180 3180 3179 3179 3179 3178 3177 3177 3177 3176 3176 3175 3175 3174 3175 3175 3174 3174 3174 3173 3173 3174 3174 3175 3175 3175 3174 3174 3174 3173 3174 3174 3175 3175
3171 3172 3175 3176 3178 3179 3180 3180 3180 3180 3180 3180 3179 3179 3178 3177 3176 3177 3177 3176 3176 3175 3175 3175 3174 3174 3174 3174 3175 3175 3174 3174 3175 3175 3175 3175 3175 3175 3175 3174 3174 3175 3177
3169 3171 3173 3175 3176 3178 3178 3179 3180 3180 3180 3180 3180 3179 3179 3178 3177 3176 3176 3175 3175 3175 3175 3175 3174 3174 3174 3174 3174 3175 3174 3174 3175 3175 3175 3175 3176 3176 3176 3175 3175 3175 3176
3168 3170 3172 3173 3175 3176 3177 3178 3179 3179 3179 3179 3179 3178 3178 3178 3178 3177 3177 3176 3175 3174 3173 3174 3174 3174 3174 3174 3173 3174 3174 3174 3175 3175 3175 3176 3176 3176 3177 3177 3176 3175 3175
3168 3169 3170 3172 3173 3175 3175 3176 3177 3178 3178 3178 3178 3178 3178 3177 3177 3177 3176 3175 3174 3174 3174 3172 3172 3172 3172 3172 3173 3173 3172 3172 3174 3174 3174 3175 3176 3175 3175 3176 3176 3176 3176
3166 3169 3169 3170 3172 3173 3174 3174 3175 3176 3177 3177 3176 3177 3176 3176 3176 3176 3175 3175 3174 3173 3172 3171 3171 3171 3170 3170 3171 3171 3171 3171 3171 3172 3173 3173 3175 3174 3175 3175 3176 3176 3176
3166 3167 3169 3170 3170 3171 3172 3173 3173 3173 3174 3175 3175 3174 3174 3174 3174 3174 3174 3173 3173 3172 3172 3171 3170 3169 3169 3169 3169 3169 3168 3169 3169 3170 3170 3170 3171 3172 3173 3173 3174 3174 3174
3165 3166 3167 3168 3169 3169 3170 3170 3171 3171 3171 3171 3171 3172 3172 3172 3172 3172 3172 3171 3171 3170 3170 3169 3169 3168 3168 3168 3167 3166 3167 3167 3166 3167 3167 3168 3169 3169 3171 3172 3172 3172 3173
3163 3164 3165 3166 3167 3167 3168 3167 3167 3168 3168 3168 3168 3168 3167 3167 3168 3168 3167 3167 3167 3167 3166 3166 3166 3166 3166 3165 3165 3164 3164 3164 3164 3164 3164 3165 3167 3167 3168 3169 3170 3171 3171
3160 3161 3162 3162 3163 3163 3163 3164 3164 3164 3163 3163 3163 3163 3163 3163 3163 3163 3163 3163 3162 3162 3162 3162 3162 3163 3163 3162 3161 3161 3161 3160 3161 3161 3161 3162 3164 3164 3166 3166 3167 3168 3169
3156 3157 3158 3158 3158 3159 3158 3158 3158 3159 3159 3158 3158 3158 3157 3157 3157 3157 3157 3157 3157 3157 3157 3157 3157 3158 3158 3159 3158 3158 3157 3157 3157 3157 3158 3159 3160 3160 3162 3163 3163 3164 3165
3153 3153 3154 3154 3154 3154 3153 3153 3152 3153 3152 3152 3152 3151 3151 3150 3150 3151 3151 3151 3150 3150 3150 3151 3152 3152 3152 3153 3154 3154 3154 3154 3154 3153 3153 3155 3156 3156 3157 3158 3160 3161 3161
3149 3149 3149 3149 3149 3149 3149 3148 3147 3147 3147 3146 3145 3144 3144 3143 3143 3143 3143 3142 3143 3143 3143 3143 3144 3146 3146 3146 3147 3148 3149 3149 3150 3151 3150 3150 3151 3153 3153 3154 3155 3156 3157
3146 3145 3145 3145 3144 3144 3144 3143 3143 3143 3143 3141 3140 3139 3138 3137 3136 3136 3135 3135 3134 3135 3135 3135 3135 3136 3138 3139 3139 3140 3142 3143 3143 3144 3146 3145 3146 3147 3149 3149 3151 3151 3153
3140 3141 3141 3140 3139 3139 3139 3139 3139 3138 3137 3136 3135 3133 3133 3132 3130 3129 3128 3127 3126 3126 3126 3126 3127 3127 3127 3129 3131 3132 3134 3135 3136 3137 3140 3140 3140 3142 3143 3144 3145 3147 3148
3136 3137 3137 3136 3136 3136 3135 3135 3134 3134 3132 3131 3130 3129 3128 3127 3125 3124 3123 3121 3120 3119 3118 3118 3117 3117 3117 3118 3119 3123 3124 3125 3127 3129 3131 3133 3133 3135 3137 3138 3139 3141 3143
3131 3132 3133 3132 3132 3132 3131 3131 3130 3129 3128 3127 3125 3124 3123 3121 3120 3119 3117 3115 3113 3111 3110 3109 3109 3108 3107 3108 3109 3110 3111 3115 3117 3119 3122 3124 3127 3128 3129 3131 3133 3135 3136
3128 3128 3129 3129 3129 3128 3128 3127 3126 3125 3124 3122 3120 3118 3116 3114 3113 3111 3110 3108 3106 3104 3102 3101 3099 3097 3097 3098 3097 3099 3101 3102 3105 3109 3112 3115 3118 3120 3123 3125 3125 3127 3129
3125 3126 3126 3125 3124 3124 3123 3122 3121 3119 3117 3115 3113 3110 3109 3107 3105 3104 3102 3101 3099 3097 3095 3093 3092 3090 3088 3087 3088 3088 3089 3091 3094 3096 3100 3103 3106 3109 3112 3116 3119 3120 3122
3120 3120 3120 3121 3121 3120 3119 3117 3116 3114 3111 3108 3106 3103 3101 3100 3097 3096 3095 3093 3091 3089 3088 3086 3084 3083 3080 3077 3076 3078 3079 3080 3080 3083 3086 3090 3094 3097 3099 3103 3105 3109 3111
3113 3113 3114 3115 3115 3114 3113 3111 3109 3108 3105 3102 3099 3097 3095 3093 3091 3088 3087 3085 3083 3081 3078 3076 3074 3073 3072 3068 3065 3063 3062 3074 3070 3071 3072 3077 3080 3084 3087 3091 3095 3097 3098
3107 3108 3110 3110 3109 3108 3106 3105 3103 3101 3098 3095 3093 3090 3089 3087 3085 3083 3080 3078 3075 3072 3070 3067 3065 3063 3062 3062 3057 3053 3050 3048 3054 3064 3063 3062 3067 3071 3074 3080 3083 3087 3089
3101 3103 3103 3103 3102 3101 3100 3099 3097 3095 3093 3091 3089 3086 3084 3082 3079 3076 3073 3070 3067 3064 3061 3059 3056 3054 3052 3052 3052 3049 3044 3037 3033 3032 3054 3053 3052 3058 3060 3066 3071 3074 3078
3095 3096 3097 3098 3096 3094 3092 3092 3091 3089 3087 3085 3083 3080 3077 3074 3072 3068 3065 3062 3059 3056 3054 3052 3049 3046 3043 3042 3040 3040 3040 3037 3032 3021 3014 3040 3041 3045 3048 3051 3056 3062 3067
3088 3089 3090 3089 3086 3085 3085 3084 3083 3082 3081 3079 3077 3075 3072 3069 3065 3062 3059 3056 3053 3050 3048 3045 3042 3039 3036 3034 3033 3031 3029 3027 3027 3020 3014 3012 3024 3037 3036 3039 3044 3048 3055